Regional Weather Roundup
Issued by NWS

Home | Current Version | Previous Version | Text Only | Print | Product List | Glossary On
Versions: 1 2 3 4 5 6 7 8 9 10 11 12 13 14 15 16 17 18 19 20 21 22 23 24 25 26 27
000
ASPQ40 PGUM 191312
RWRPQ
WEATHER ROUNDUP FOR THE MARIANAS AND MICRONESIA
NATIONAL WEATHER SERVICE TIYAN GU
1100 PM CHST THU OCT 19 2017

GUZ001>004-191400-
MARIANA ISLANDS-

CITY           SKY/WX    TMP DP  RH WIND       PRES   REMARKS
GUAM AIRPORT   CLEAR     82  79  89 N7        29.84F HX  93
ANDERSEN AFB   MOCLDY    81  77  89 NW5       29.85S
ROTA AIRPORT   NOT AVBL
TINIAN AP      NOT AVBL
SAIPAN AP      MOCLDY    81  79  94 NE7       29.82F

$$

PMZ161-191400-
REPUBLIC OF PALAU-

CITY           SKY/WX    TMP DP  RH WIND       PRES   REMARKS
KOROR AP       CLOUDY    82  79  89 S8        29.78R HX  93
KOROR WSO      CLOUDY    84  79  84 S10       29.79R HX  96

$$

PMZ171>174-191400-
FEDERATED STATES OF MICRONESIA-

CITY           SKY/WX    TMP DP  RH WIND       PRES   REMARKS
YAP AIRPORT    CLOUDY    84  79  84 SE9       29.78S HX  96
CHUUK AP       CLOUDY    82  81  94 CALM      29.78S HX  95
POHNPEI AP     NOT AVBL
POHNPEI WSO    CLOUDY    79  75  89 SE5       29.83R
KOSRAE AP      NOT AVBL

$$

PMZ181-191400-
REPUBLIC OF THE MARSHALL ISLANDS-

CITY           SKY/WX    TMP DP  RH WIND       PRES   REMARKS
KWAJALEIN AP   MOCLDY    82  75  78 CALM      29.79F
MAJURO AP      NOT AVBL
MAJURO WSO     MOCLDY    82  75  78 N3        29.76F

$$





USA.gov is the U.S. government's official web portal to all federal, state and local government web resources and services.